Snowfall_Accumulation
0.0 0.1 0.5 0.0 0.0 0.0 0.2 0.6 0.6 0.0 0.0 0.0 0.0 0.0 0.0 0.0 0.0 0.0 0.0 0.0 0.0 0.0 0.0 0.0 0.0 0.0 0.0 0.0 0.0 0.0 0.0 0.0 0.0 0.0 0.0 0.0 0.0 0.0 0.0 0.0 0.0 0.0 0.0 0.0
0.0 0.3 0.0 0.0 0.0 0.1 0.1 0.8 1.2 0.0 0.0 0.0 0.1 0.1 0.0 0.0 0.0 0.0 0.0 0.0 0.0 0.0 0.0 0.0 0.0 0.0 0.0 0.0 0.0 0.0 0.0 0.0 0.0 0.0 0.0 0.0 0.0 0.0 0.0 0.0 0.0 0.0 0.0 0.0
0.3 0.0 0.0 0.0 0.0 0.1 0.1 1.1 0.7 0.8 0.0 0.0 0.2 0.7 0.0 0.0 0.0 0.0 0.0 0.0 0.0 0.0 0.0 0.0 0.0 0.0 0.0 0.0 0.0 0.0 0.0 0.0 0.0 0.0 0.0 0.0 0.0 0.0 0.0 0.0 0.0 0.0 0.0 0.0
0.1 0.0 0.0 0.0 0.0 0.0 1.9 0.0 0.0 0.2 3.7 7.8 0.2 12.5 0.0 0.0 0.0 0.0 0.0 0.0 0.0 0.0 0.0 0.0 0.0 0.0 0.0 0.0 0.0 0.0 0.0 0.0 0.0 0.0 0.0 0.0 0.0 0.0 0.0 0.0 0.0 0.0 0.0 0.0
0.3 0.0 0.0 0.0 0.0 0.0 0.5 0.0 0.0 0.1 2.2 3.3 1.0 10.0 0.3 0.0 0.0 0.0 0.0 0.0 0.0 0.0 0.0 0.0 0.0 0.0 0.0 0.0 0.0 0.0 0.0 0.0 0.0 0.0 0.0 0.0 0.0 0.0 0.0 0.0 0.0 0.0 0.0 0.0
0.2 0.0 0.0 0.1 0.1 0.0 0.0 0.2 0.0 0.2 1.2 17.2 1.2 2.3 2.8 0.4 0.4 0.0 0.0 0.0 0.0 0.0 0.0 0.0 0.0 0.0 0.0 0.0 0.0 0.0 0.0 0.0 0.0 0.0 0.0 0.0 0.0 0.0 0.0 0.0 0.0 0.0 0.0 0.0
0.1 0.1 0.2 0.1 0.4 0.0 1.1 3.5 13.4 11.7 19.6 8.9 0.3 1.4 3.7 0.3 0.0 0.0 0.0 0.0 0.0 0.0 0.0 0.0 0.0 0.0 0.0 0.0 0.0 0.0 0.0 0.0 0.0 0.0 0.0 0.0 0.0 0.0 0.0 0.0 0.0 0.0 0.0 0.0
2.0 1.7 0.2 0.0 2.5 8.4 1.0 9.2 13.3 9.7 2.8 0.7 0.1 5.5 3.3 0.1 0.0 0.0 0.0 0.0 0.0 0.0 0.0 0.0 0.0 0.0 0.0 0.0 0.0 0.0 0.0 0.0 0.0 0.0 0.0 0.0 0.0 0.0 0.0 0.0 0.0 0.0 0.0 0.0
5.0 0.4 0.1 0.1 0.1 0.8 1.2 7.1 0.2 9.4 0.9 6.3 1.0 0.9 0.9 0.0 0.0 0.0 0.0 0.0 0.0 0.0 0.0 0.0 0.0 0.0 0.0 0.0 0.0 0.0 0.0 0.0 0.0 0.0 0.0 0.0 0.0 0.0 0.0 0.0 0.0 0.0 0.0 0.0
1.6 6.3 0.0 0.1 0.3 0.3 3.1 1.3 7.0 10.5 13.5 4.3 0.3 4.3 4.1 0.5 0.3 0.0 0.0 0.2 0.1 0.1 0.1 0.0 0.0 0.0 0.0 0.0 0.0 0.0 0.0 0.0 0.0 0.0 0.0 0.0 0.0 0.0 0.0 0.0 0.0 0.0 0.0 0.0
3.0 5.8 0.5 0.1 1.5 8.3 3.1 13.5 5.2 5.9 7.3 12.3 4.7 5.5 6.5 4.8 4.1 4.4 1.4 0.9 1.3 1.1 0.4 0.2 0.0 0.0 0.0 0.0 0.0 0.0 0.0 0.0 0.0 0.0 0.0 0.0 0.0 0.0 0.0 0.0 0.0 0.0 0.0 0.0
1.4 6.2 7.0 1.0 1.9 2.8 2.7 9.5 9.3 8.5 7.6 6.4 9.5 9.3 1.9 6.3 6.7 8.4 5.7 4.1 2.0 2.4 0.5 0.3 0.1 0.0 0.0 0.0 0.0 0.0 0.0 0.0 0.0 0.0 0.0 0.0 0.0 0.0 0.0 0.0 0.0 0.0 0.0 0.0
7.4 4.8 3.4 4.4 3.1 1.2 6.4 6.3 7.8 4.0 5.7 9.0 21.7 16.5 2.1 4.4 5.8 6.9 7.5 5.5 5.6 2.8 1.2 0.6 0.1 0.1 0.0 0.0 0.0 0.0 0.0 0.0 0.0 0.0 0.0 0.0 0.0 0.0 0.0 0.0 0.0 0.0 0.0 0.0
nan 2.2 5.3 9.9 7.8 4.8 9.9 5.0 5.1 8.5 15.8 10.4 16.8 19.6 9.8 8.3 6.7 4.9 5.1 6.3 5.8 5.6 5.1 3.4 1.2 0.5 0.1 0.0 0.0 0.0 0.0 0.0 0.0 0.0 0.0 0.0 0.0 0.0 0.0 0.0 0.0 0.0 0.0 0.0
1.2 2.9 0.3 0.6 1.2 3.9 6.9 10.5 6.8 13.3 10.9 15.7 19.2 16.9 17.2 16.0 21.1 16.1 15.2 10.7 7.0 6.9 5.8 3.0 2.5 1.1 0.3 0.1 0.0 0.0 0.0 0.0 0.0 0.0 0.0 0.0 0.0 0.0 0.0 0.0 0.0 0.0 0.0 0.0
0.2 2.4 1.8 2.2 1.5 3.9 7.7 4.4 4.0 4.2 7.4 8.2 8.5 8.9 8.9 11.8 8.1 10.5 9.4 9.7 8.5 8.9 5.5 4.2 2.4 0.8 0.4 0.3 0.1 0.0 0.0 0.0 0.0 0.0 0.0 0.0 0.0 0.0 0.0 0.0 0.0 0.0 0.0 0.0
1.0 1.5 2.8 0.9 0.6 1.3 7.4 14.9 7.5 8.1 12.1 14.1 22.7 24.1 13.3 11.6 12.1 14.7 12.4 14.3 14.5 12.4 9.9 9.4 5.0 3.3 1.5 0.6 0.3 0.0 0.0 0.0 0.0 0.0 0.0 0.0 0.0 0.0 0.0 0.0 0.0 0.0 0.0 0.0
0.4 1.1 1.1 2.3 0.5 10.3 10.9 2.7 6.0 12.4 10.8 10.5 9.9 14.1 14.6 15.0 8.9 9.8 13.5 19.9 18.0 16.4 11.5 9.9 5.8 4.4 0.9 0.6 0.3 0.1 0.0 0.0 0.0 0.0 0.0 0.0 0.0 0.0 0.0 0.0 0.0 0.0 0.0 0.0
0.0 0.1 4.4 6.1 1.7 1.0 0.7 1.2 4.7 13.7 8.6 6.4 9.3 6.7 7.5 4.8 3.3 3.1 3.0 7.8 16.0 17.4 14.7 12.5 10.6 6.4 1.9 0.7 0.3 0.1 0.1 0.0 0.0 0.0 0.0 0.0 0.0 0.0 0.0 0.0 0.0 0.0 0.0 0.0
0.0 0.0 1.0 1.8 3.4 3.6 3.4 0.1 0.1 1.1 12.9 0.3 6.8 7.4 9.6 5.4 8.1 5.8 6.3 10.2 13.0 12.3 15.3 17.2 9.2 5.3 2.5 0.4 0.0 0.0 0.0 0.0 0.0 0.0 0.0 0.0 0.0 0.0 0.0 0.0 0.0 0.0 0.0 0.0
1.8 2.9 3.4 0.7 3.4 1.2 0.0 0.0 0.3 2.1 3.2 3.3 6.4 7.3 9.6 19.2 14.6 10.5 8.9 8.8 10.2 13.0 14.7 13.1 7.0 5.4 3.3 0.2 0.0 0.0 0.0 0.0 0.0 0.0 0.0 0.0 0.0 0.0 0.0 0.0 0.0 0.0 0.0 0.0
5.7 3.0 2.4 1.4 3.1 6.2 0.0 0.0 2.2 3.1 0.3 2.3 3.6 6.4 10.5 4.9 5.2 5.5 5.5 7.9 11.6 12.6 14.7 14.2 10.8 7.4 7.6 2.0 0.0 0.0 0.0 0.0 0.0 0.0 0.0 0.0 0.0 0.0 0.0 0.0 0.0 0.0 0.0 0.0
11.7 4.2 6.0 0.8 0.9 0.0 0.0 0.0 0.0 0.0 0.6 1.1 4.6 1.9 4.5 3.1 3.0 2.6 5.3 6.4 9.5 11.8 13.6 14.9 15.7 12.9 8.3 5.6 1.9 0.5 0.3 0.0 0.0 0.0 0.0 0.0 0.0 0.0 0.0 0.0 0.0 0.4 0.0 0.3
0.7 0.3 1.2 0.9 0.0 0.0 0.0 0.0 0.0 0.0 0.3 0.4 1.2 2.5 1.2 3.8 1.6 1.2 1.5 3.6 6.7 8.4 14.4 16.2 12.9 12.4 11.4 9.5 6.1 2.8 0.5 0.1 0.1 0.2 0.2 0.1 0.1 0.1 0.1 0.4 0.4 0.4 0.5 0.6
1.3 0.4 0.3 0.2 0.0 0.0 0.0 0.0 0.0 0.1 0.1 0.2 0.2 0.7 2.3 2.1 0.8 1.5 1.3 2.3 5.1 7.7 11.2 15.1 16.4 14.9 11.3 10.9 10.6 5.7 2.0 0.2 0.4 0.6 1.4 0.8 0.6 0.2 0.5 0.6 0.7 0.6 0.3 0.3
1.7 2.2 1.4 0.3 0.0 0.3 0.1 0.0 0.0 0.5 0.9 0.9 2.0 1.2 0.8 1.8 2.2 1.3 1.2 1.3 4.1 7.6 9.4 11.7 14.6 13.2 12.3 11.7 11.9 8.6 4.2 0.5 0.3 0.4 1.2 1.8 1.3 1.0 0.8 0.8 1.0 nan nan nan
Water_Equivalent
0.00 0.03 0.08 0.00 0.00 0.00 0.04 0.09 0.09 0.00 0.00 0.00 0.01 0.00 0.00 0.00 0.00 0.00 0.00 0.00 0.00 0.00 0.00 0.00 0.00 0.00 0.00 0.00 0.00 0.00 0.00 0.00 0.00 0.00 0.00 0.00 0.00 0.00 0.00 0.00 0.00 0.00 0.00 0.00
0.00 0.06 0.00 0.00 0.00 0.01 0.02 0.14 0.22 0.01 0.00 0.00 0.01 0.02 0.00 0.00 0.00 0.00 0.00 0.00 0.00 0.00 0.00 0.00 0.00 0.00 0.00 0.00 0.00 0.00 0.00 0.00 0.00 0.00 0.00 0.00 0.00 0.00 0.00 0.00 0.00 0.00 0.00 0.00
0.04 0.00 0.00 0.00 0.00 0.02 0.03 0.20 0.12 0.16 0.00 0.00 0.04 0.11 0.00 0.00 0.00 0.00 0.00 0.00 0.00 0.00 0.00 0.00 0.00 0.00 0.00 0.00 0.00 0.00 0.00 0.00 0.00 0.00 0.00 0.00 0.00 0.00 0.00 0.00 0.00 0.00 0.00 0.00
0.02 0.00 0.00 0.00 0.00 0.00 0.23 0.00 0.01 0.03 0.52 1.00 0.05 1.20 0.00 0.00 0.00 0.00 0.00 0.00 0.00 0.00 0.00 0.00 0.00 0.00 0.00 0.00 0.00 0.00 0.00 0.00 0.00 0.00 0.00 0.00 0.00 0.00 0.00 0.00 0.00 0.00 0.00 0.00
0.06 0.00 0.00 0.00 0.00 0.00 0.06 0.00 0.00 0.02 0.38 0.42 0.18 1.30 0.05 0.00 0.00 0.00 0.00 0.00 0.00 0.00 0.00 0.00 0.00 0.00 0.00 0.00 0.00 0.00 0.00 0.00 0.00 0.00 0.00 0.00 0.00 0.00 0.00 0.00 0.00 0.00 0.00 0.00
0.05 0.00 0.01 0.01 0.01 0.00 0.00 0.02 0.00 0.05 0.20 2.06 0.31 0.28 0.27 0.05 0.05 0.00 0.00 0.00 0.00 0.00 0.00 0.00 0.00 0.00 0.00 0.00 0.00 0.00 0.00 0.00 0.00 0.00 0.00 0.00 0.00 0.00 0.00 0.00 0.00 0.00 0.00 0.00
0.03 0.02 0.05 0.02 0.07 0.00 0.15 0.40 1.59 1.45 2.35 0.97 0.07 0.23 0.40 0.03 0.00 0.00 0.00 0.00 0.00 0.00 0.00 0.00 0.00 0.00 0.00 0.00 0.00 0.00 0.00 0.00 0.00 0.00 0.00 0.00 0.00 0.00 0.00 0.00 0.00 0.00 0.00 0.00
0.27 0.32 0.05 0.01 0.38 0.99 0.13 0.88 1.26 0.85 0.35 0.10 0.01 0.50 0.35 0.01 0.00 0.00 0.00 0.00 0.00 0.00 0.00 0.00 0.00 0.00 0.00 0.00 0.00 0.00 0.00 0.00 0.00 0.00 0.00 0.00 0.00 0.00 0.00 0.00 0.00 0.00 0.00 0.00
0.42 0.05 0.01 0.02 0.01 0.13 0.15 0.83 0.03 0.76 0.12 0.49 0.10 0.10 0.13 0.00 0.00 0.00 0.00 0.00 0.00 0.00 0.00 0.00 0.00 0.00 0.00 0.00 0.00 0.00 0.00 0.00 0.00 0.00 0.00 0.00 0.00 0.00 0.00 0.00 0.00 0.00 0.00 0.00
0.21 0.49 0.00 0.02 0.05 0.06 0.37 0.19 0.77 1.48 1.30 0.35 0.03 0.33 0.28 0.04 0.03 0.00 0.00 0.02 0.02 0.01 0.01 0.00 0.00 0.00 0.00 0.00 0.00 0.00 0.00 0.00 0.00 0.00 0.00 0.00 0.00 0.00 0.00 0.00 0.00 0.00 0.00 0.00
0.42 0.59 0.07 0.03 0.19 0.76 0.37 2.01 0.59 0.62 0.53 0.99 0.38 0.41 0.61 0.41 0.37 0.37 0.13 0.09 0.14 0.12 0.05 0.03 0.00 0.00 0.00 0.00 0.00 0.00 0.00 0.00 0.00 0.00 0.00 0.00 0.00 0.00 0.00 0.00 0.00 0.00 0.00 0.00
0.26 0.65 0.79 0.13 0.27 0.42 0.35 0.95 1.02 0.67 0.64 0.49 0.78 0.88 0.23 0.63 0.65 0.83 0.54 0.42 0.21 0.30 0.06 0.04 0.02 0.01 0.00 0.00 0.00 0.00 0.00 0.00 0.00 0.00 0.00 0.00 0.00 0.00 0.00 0.00 0.00 0.00 0.00 0.00
0.84 0.65 0.41 0.45 0.45 0.17 0.61 0.67 0.81 0.37 0.53 0.64 1.74 1.49 0.28 0.43 0.58 0.93 0.79 0.53 0.61 0.31 0.15 0.07 0.02 0.01 0.01 0.00 0.00 0.00 0.00 0.00 0.00 0.00 0.00 0.00 0.00 0.00 0.00 0.00 0.00 0.00 0.00 0.00
nan 0.29 0.51 0.76 0.61 0.49 0.78 0.43 0.49 0.77 1.94 0.79 1.60 1.52 0.96 0.80 0.61 0.65 0.53 0.67 0.69 0.70 0.58 0.41 0.14 0.06 0.01 0.01 0.01 0.00 0.00 0.00 0.00 0.00 0.00 0.00 0.00 0.00 0.00 0.00 0.00 0.00 0.00 0.00
0.19 0.53 0.03 0.06 0.11 0.37 0.58 0.87 0.56 1.51 0.84 1.31 1.79 1.23 1.51 1.46 1.97 1.73 1.60 1.14 0.69 0.70 0.84 0.38 0.33 0.13 0.04 0.02 0.00 0.00 0.00 0.00 0.00 0.00 0.00 0.00 0.00 0.00 0.00 0.00 0.00 0.00 0.00 0.00
0.05 0.45 0.41 0.46 0.17 0.38 0.62 0.43 0.38 0.37 0.58 0.67 0.76 0.66 0.93 1.39 1.12 1.23 1.04 1.00 0.83 1.02 0.85 0.62 0.33 0.10 0.05 0.04 0.02 0.00 0.00 0.00 0.00 0.00 0.00 0.00 0.00 0.00 0.00 0.00 0.00 0.00 0.00 0.00
0.13 0.25 0.55 0.10 0.06 0.12 0.90 1.20 0.68 0.71 0.97 1.10 1.42 1.75 1.36 1.15 1.19 1.55 1.23 1.38 1.50 1.66 1.33 1.14 0.56 0.39 0.18 0.07 0.03 0.01 0.00 0.00 0.00 0.00 0.00 0.00 0.00 0.00 0.00 0.00 0.00 0.00 0.00 0.00
0.06 0.17 0.18 0.40 0.09 1.17 0.94 0.30 0.59 1.10 0.91 0.88 0.82 1.21 1.39 1.38 0.97 1.22 1.49 1.98 1.79 2.03 1.43 1.14 0.76 0.56 0.12 0.08 0.05 0.01 0.00 0.00 0.00 0.00 0.00 0.00 0.00 0.00 0.00 0.00 0.00 0.00 0.00 0.00
0.00 0.01 0.63 0.79 0.19 0.08 0.07 0.11 0.39 1.00 0.67 0.55 0.74 0.57 0.68 0.49 0.40 0.41 0.40 0.96 1.78 2.09 1.82 1.57 1.68 0.99 0.27 0.11 0.04 0.02 0.01 0.00 0.00 0.00 0.00 0.00 0.00 0.00 0.00 0.00 0.00 0.00 0.00 0.00
0.00 0.00 0.18 0.33 0.37 0.31 0.23 0.01 0.02 0.12 1.00 0.03 0.57 0.61 0.77 0.50 0.56 0.53 0.70 1.17 1.44 1.60 2.07 2.69 1.61 0.79 0.38 0.07 0.00 0.00 0.00 0.00 0.00 0.00 0.00 0.00 0.00 0.00 0.00 0.00 0.00 0.00 0.00 0.00
0.29 0.33 0.45 0.11 0.44 0.10 0.00 0.00 0.04 0.16 0.23 0.28 0.56 0.64 0.82 1.46 1.37 1.06 0.96 0.96 1.23 1.60 2.05 2.24 1.31 0.88 0.51 0.05 0.00 0.00 0.00 0.00 0.00 0.00 0.00 0.00 0.00 0.00 0.00 0.00 0.00 0.00 0.00 0.00
0.48 0.31 0.31 0.20 0.45 0.78 0.00 0.00 0.13 0.25 0.03 0.21 0.32 0.61 0.95 0.49 0.54 0.58 0.58 0.82 1.26 1.55 2.27 2.49 1.87 1.32 1.55 0.43 0.00 0.01 0.01 0.01 0.00 0.00 0.00 0.00 0.00 0.00 0.00 0.00 0.00 0.00 0.00 0.00
1.03 0.43 0.52 0.08 0.08 0.00 0.00 0.00 0.00 0.00 0.06 0.10 0.40 0.19 0.47 0.31 0.29 0.26 0.51 0.63 0.99 1.45 2.03 2.72 3.02 2.67 1.37 0.96 0.44 0.13 0.09 0.02 0.01 0.01 0.01 0.02 0.01 0.00 0.00 0.00 0.01 0.15 0.01 0.12
0.09 0.04 0.14 0.11 0.00 0.00 0.00 0.00 0.00 0.00 0.03 0.04 0.13 0.27 0.14 0.35 0.16 0.13 0.15 0.36 0.70 0.95 1.91 2.54 2.12 2.16 1.80 1.68 1.47 0.68 0.16 0.03 0.03 0.06 0.09 0.03 0.02 0.04 0.04 0.18 0.16 0.17 0.19 0.23
0.15 0.05 0.03 0.02 0.01 0.01 0.00 0.01 0.00 0.01 0.01 0.02 0.03 0.10 0.25 0.21 0.09 0.16 0.14 0.24 0.52 0.98 1.53 2.18 2.45 2.43 1.90 1.94 2.22 1.38 0.50 0.07 0.15 0.20 0.48 0.29 0.22 0.08 0.18 0.22 0.28 0.24 0.12 0.13
0.19 0.19 0.13 0.05 0.00 0.03 0.02 0.00 0.00 0.05 0.10 0.10 0.20 0.12 0.11 0.21 0.23 0.14 0.14 0.16 0.43 0.80 1.29 1.72 2.14 2.09 2.21 2.22 2.31 1.89 1.15 0.16 0.10 0.13 0.38 0.56 0.41 0.33 0.27 0.24 0.32 nan nan nan
SL_Ratio
nan 5.0 5.7 nan nan nan 5.8 6.8 7.1 nan nan 5.0 4.8 5.5 nan nan nan nan nan nan nan nan nan nan nan nan nan nan nan nan nan nan nan nan nan nan nan nan nan nan nan nan nan nan
0.0 5.4 nan nan 0.0 5.2 5.3 5.5 5.6 4.1 nan 6.7 4.8 5.2 nan nan nan nan nan nan nan nan nan nan nan nan nan nan nan nan nan nan nan nan nan nan nan nan nan nan nan nan nan nan
6.2 5.0 nan nan 5.0 5.2 5.1 5.6 6.1 5.2 2.5 2.7 5.3 6.3 nan nan nan nan nan nan nan nan nan nan nan nan nan nan nan nan nan nan nan nan nan nan nan nan nan nan nan nan nan nan
5.0 nan nan nan 5.0 5.0 8.2 nan 5.6 6.3 7.1 7.9 4.5 10.4 nan nan 0.0 nan nan nan nan nan nan nan nan nan nan nan nan nan nan nan nan nan nan nan nan nan nan nan nan nan nan nan
5.5 nan nan 0.0 nan nan 8.3 nan nan 4.2 5.9 7.8 5.4 7.7 5.8 nan nan nan nan nan nan nan nan nan nan nan nan nan nan nan nan nan nan nan nan nan nan nan nan nan nan nan nan nan
4.8 nan 4.3 5.1 5.3 nan nan 7.2 5.7 4.3 5.9 8.3 4.0 8.3 10.3 7.7 8.8 nan nan nan nan nan nan nan nan nan nan nan nan nan nan nan nan nan nan nan nan nan nan nan nan nan nan nan
4.7 4.4 4.6 4.6 5.3 3.3 7.4 9.0 8.4 8.1 8.3 9.2 4.0 6.1 9.2 8.6 7.8 nan nan nan nan nan nan nan nan nan nan nan nan nan nan nan nan nan nan nan nan nan nan nan nan nan nan nan
7.5 5.2 5.2 4.4 6.7 8.5 7.7 10.4 10.6 11.4 7.9 6.7 5.7 11.0 9.5 7.1 nan nan nan nan nan nan nan nan nan nan nan nan nan nan nan nan nan nan nan nan nan nan nan nan nan nan nan nan
12.0 7.0 4.3 4.1 4.6 6.2 7.8 8.5 6.3 12.4 7.6 12.8 9.7 8.8 7.3 nan nan nan nan nan nan nan nan nan nan nan nan nan nan nan nan nan nan nan nan nan nan nan nan nan nan nan nan nan
7.6 13.0 6.7 4.6 5.2 5.5 8.4 6.7 9.2 7.1 10.4 12.5 9.9 13.2 14.5 10.9 9.7 10.0 8.5 8.5 8.2 7.9 7.1 6.0 nan nan nan nan nan nan nan nan nan nan nan nan nan nan nan nan nan nan nan nan
7.0 9.8 6.4 5.7 8.1 10.9 8.5 6.7 8.8 9.5 13.7 12.4 12.2 13.4 10.7 11.9 11.2 11.9 10.7 9.8 9.8 9.6 8.4 7.2 6.7 nan nan nan nan nan nan nan nan nan nan nan nan nan nan nan nan nan nan nan
5.6 9.5 8.9 8.3 6.8 6.7 7.7 10.0 9.1 12.7 12.0 13.0 12.3 10.5 8.0 10.1 10.2 10.2 10.4 9.8 9.5 8.0 8.4 7.8 7.0 6.3 0.0 nan nan nan nan nan nan nan nan nan nan nan nan nan nan nan nan nan
8.8 7.4 8.4 9.9 6.8 7.3 10.4 9.4 9.7 10.9 10.7 14.2 12.4 11.0 7.4 10.1 9.9 7.5 9.6 10.2 9.2 8.9 8.3 8.6 7.3 6.7 6.0 6.0 nan nan nan nan nan nan nan nan nan nan nan nan nan nan nan nan
nan 7.6 10.3 13.0 12.8 9.8 12.7 11.7 10.5 11.1 8.2 13.2 10.5 12.9 10.3 10.3 11.0 7.4 9.5 9.4 8.5 7.9 8.8 8.2 8.5 7.6 6.8 5.6 5.3 nan nan nan nan nan nan nan nan nan nan nan nan nan nan nan
6.4 5.5 9.0 10.0 10.7 10.7 11.8 12.1 12.0 8.8 13.1 11.9 10.7 13.8 11.4 11.0 10.7 9.3 9.5 9.4 10.2 9.8 6.9 7.9 7.6 8.5 7.7 6.9 5.7 5.0 nan nan nan nan nan nan nan nan nan nan nan nan nan nan
4.9 5.2 4.6 4.8 9.0 10.5 12.4 10.3 10.6 11.6 12.8 12.2 11.1 13.6 9.6 8.5 7.3 8.6 9.1 9.7 10.3 8.8 6.4 6.7 7.2 8.6 8.5 7.8 7.1 6.0 nan nan nan nan nan nan nan nan nan nan nan nan nan nan
7.9 6.1 5.1 9.8 10.3 10.2 8.2 12.4 11.1 11.4 12.4 12.8 16.0 13.8 9.8 10.1 10.2 9.5 10.0 10.4 9.6 7.5 7.5 8.2 9.0 8.6 8.4 8.3 7.8 6.3 nan nan nan nan nan nan nan nan nan nan nan nan nan nan
7.6 6.4 6.1 5.8 5.6 8.8 11.6 9.1 10.2 11.2 11.8 11.9 12.0 11.7 10.5 10.9 9.2 8.1 9.1 10.0 10.1 8.1 8.0 8.7 7.6 7.8 7.5 7.2 6.8 5.3 6.0 nan nan nan nan nan nan nan nan nan nan nan nan nan
nan 6.5 6.9 7.8 9.3 11.9 10.0 10.6 12.1 13.7 12.9 11.6 12.6 11.8 11.0 9.9 8.2 7.5 7.5 8.1 9.0 8.3 8.1 7.9 6.3 6.5 7.0 6.5 6.0 5.5 5.7 nan nan nan nan nan nan nan nan nan nan nan nan nan
10.0 10.0 5.4 5.5 9.2 11.6 14.8 8.2 6.9 8.7 12.9 8.9 11.9 12.1 12.4 10.9 14.5 10.9 9.0 8.7 9.0 7.7 7.4 6.4 5.7 6.7 6.4 5.4 5.8 6.7 nan nan nan nan nan nan nan nan nan nan nan nan nan nan
6.4 8.7 7.6 5.9 7.7 11.8 10.0 nan 7.2 13.7 14.0 11.7 11.4 11.4 11.8 13.1 10.7 9.9 9.2 9.2 8.3 8.1 7.2 5.8 5.4 6.2 6.6 4.9 0.0 nan nan nan nan nan nan nan nan nan nan nan nan nan nan nan
11.7 9.7 7.5 6.9 7.0 8.0 nan 0.0 16.1 12.7 10.6 10.9 11.2 10.4 11.0 10.0 9.6 9.5 9.5 9.7 9.2 8.1 6.5 5.7 5.8 5.6 4.9 4.8 4.4 2.4 2.5 2.5 nan nan nan nan nan nan nan nan nan 2.5 nan 0.0
11.3 9.7 11.6 9.5 10.8 nan nan nan nan 10.0 11.1 11.3 11.5 10.2 9.5 10.2 10.2 9.8 10.3 10.0 9.6 8.1 6.7 5.5 5.2 4.8 6.1 5.8 4.4 3.4 3.0 2.6 2.6 2.6 2.8 2.9 2.6 2.5 nan 2.5 2.7 2.5 2.7 2.6
8.0 6.6 8.8 8.2 5.0 nan nan nan nan nan 9.4 9.1 9.2 9.2 8.8 10.7 9.9 10.0 9.7 10.1 9.6 8.8 7.5 6.4 6.1 5.7 6.3 5.7 4.2 4.2 3.2 2.5 2.6 2.7 2.7 2.5 2.6 2.5 2.5 2.5 2.5 2.5 2.6 2.7
8.6 7.7 8.0 7.5 5.7 5.9 4.0 4.4 5.0 8.9 7.8 8.3 6.9 7.7 9.2 9.8 9.1 9.3 9.1 9.7 9.9 7.9 7.3 6.9 6.7 6.1 5.9 5.6 4.8 4.1 4.0 2.7 2.7 2.7 2.8 2.9 2.8 2.8 2.8 2.7 2.7 2.7 2.7 2.7
9.1 11.6 10.6 7.5 10.0 9.8 5.4 3.3 nan 9.8 9.7 8.8 9.7 9.5 7.9 8.7 9.6 9.1 8.3 8.1 9.6 9.5 7.3 6.8 6.8 6.3 5.5 5.3 5.2 4.5 3.7 3.0 3.1 3.3 3.2 3.2 3.2 3.1 3.1 3.1 3.1 nan nan nan